Location: Little Chesterford
(52.0500°N, 0.1833°E)
Time: 12:35:30
(UTC+00:00)

Meteor 2-5 Rocket - Pass Details

Date: 26 September 2023
Orbit: 832 x 911 km, 81.2° (Epoch: 28 November)

Event Time Altitude Azimuth Distance (km) Brightness Sun altitude
Rises 20:38:27 0° 345° (NNW) 3,497 7.6 -25.5°
Reaches altitude 10° 20:40:56 10° 345° (NNW) 2,542 6.8 -25.8°
Maximum altitude 20:46:41 77° 261° (W) 891 3.8 -26.5°
Enters shadow 20:47:43 60° 195° (SSW) 984 3.8 -26.6°
